When you browse on this site, cookies collect data to enhance your experience and personalize the content and advertising you see.
Visit our Privacy Policy to learn more. By continuing to use the site, you agree to this use of cookies and data.
  • En España
  • Lista de países
  • Para 7 días
  • Temperatura del agua
  • El tiempo en el mapa
  • Informadores
  • user-avatar
    Iniciar sesión

    Tiempo cada hora Portalegre

    Hoy, 3 Junio, Miércoles

    Tiempo Temperatura Precipitaciones Viento Presión Humedad
    00:00 +15°C° 0 mm 1 mps 721 mmHg 93%
    01:00 +15°C° 0 mm 1 mps 721 mmHg 93%
    02:00 +15°C° 0 mm 1 mps 721 mmHg 93%
    03:00 +14°C° 0 mm 1 mps 720 mmHg 94%
    04:00 +15°C° 0 mm 1 mps 720 mmHg 93%
    05:00 +15°C° 0 mm 1 mps 720 mmHg 92%
    06:00 +15°C° 0 mm 1 mps 720 mmHg 87%
    07:00 +17°C° 0 mm 2 mps 720 mmHg 78%
    08:00 +19°C° 0 mm 2 mps 721 mmHg 69%
    09:00 +21°C° 0 mm 3 mps 721 mmHg 61%
    10:00 +22°C° 0 mm 3 mps 721 mmHg 55%
    11:00 +25°C° 0 mm 3 mps 721 mmHg 50%
    12:00 +26°C° 0 mm 4 mps 721 mmHg 45%
    13:00 +27°C° 0 mm 4 mps 720 mmHg 43%
    14:00 +27°C° 0 mm 4 mps 720 mmHg 42%
    15:00 +28°C° 0 mm 5 mps 719 mmHg 40%
    16:00 +27°C° 0 mm 5 mps 719 mmHg 44%
    17:00 +26°C° 0 mm 5 mps 719 mmHg 47%
    18:00 +25°C° 0 mm 5 mps 719 mmHg 50%
    19:00 +22°C° 0 mm 5 mps 719 mmHg 57%
    20:00 +20°C° 0 mm 4 mps 719 mmHg 64%
    21:00 +18°C° 0 mm 3 mps 719 mmHg 71%
    22:00 +17°C° 0 mm 3 mps 719 mmHg 77%
    23:00 +16°C° 0 mm 3 mps 719 mmHg 83%

    Mañana, 4 Junio, Jueves

    Tiempo Temperatura Precipitaciones Viento Presión Humedad
    00:00 +14°C° 0 mm 3 mps 719 mmHg 88%
    01:00 +14°C° 0 mm 3 mps 718 mmHg 90%
    02:00 +13°C° 0 mm 3 mps 718 mmHg 92%
    03:00 +13°C° 0 mm 3 mps 718 mmHg 93%
    04:00 +13°C° 0 mm 3 mps 718 mmHg 93%
    05:00 +14°C° 0 mm 3 mps 718 mmHg 92%
    06:00 +14°C° 0 mm 3 mps 718 mmHg 92%
    07:00 +17°C° 0 mm 3 mps 718 mmHg 82%
    08:00 +18°C° 0 mm 3 mps 719 mmHg 73%
    09:00 +20°C° 0 mm 4 mps 719 mmHg 64%
    10:00 +21°C° 0 mm 4 mps 719 mmHg 59%
    11:00 +23°C° 0 mm 4 mps 719 mmHg 55%
    12:00 +25°C° 0 mm 4 mps 719 mmHg 50%
    13:00 +26°C° 0 mm 5 mps 719 mmHg 48%
    14:00 +26°C° 0 mm 5 mps 719 mmHg 45%
    15:00 +27°C° 0 mm 5 mps 719 mmHg 43%
    16:00 +26°C° 0 mm 5 mps 719 mmHg 41%
    17:00 +25°C° 0 mm 5 mps 719 mmHg 38%
    18:00 +25°C° 0 mm 5 mps 719 mmHg 35%
    19:00 +21°C° 0 mm 4 mps 719 mmHg 45%
    20:00 +19°C° 0 mm 3 mps 719 mmHg 54%
    21:00 +16°C° 0 mm 3 mps 720 mmHg 63%
    22:00 +15°C° 0 mm 2 mps 720 mmHg 68%
    23:00 +14°C° 0 mm 2 mps 720 mmHg 73%

    Pasado mañana, 5 Junio, Viernes

    Tiempo Temperatura Precipitaciones Viento Presión Humedad
    00:00 +13°C° 0 mm 2 mps 720 mmHg 79%
    01:00 +12°C° 0 mm 2 mps 720 mmHg 81%
    02:00 +12°C° 0 mm 2 mps 720 mmHg 83%
    03:00 +11°C° 0 mm 1 mps 719 mmHg 85%
    04:00 +11°C° 0 mm 1 mps 720 mmHg 85%
    05:00 +12°C° 0 mm 1 mps 720 mmHg 85%
    06:00 +12°C° 0 mm 2 mps 720 mmHg 86%
    07:00 +14°C° 0 mm 2 mps 720 mmHg 78%
    08:00 +17°C° 0 mm 2 mps 721 mmHg 70%
    09:00 +19°C° 0 mm 2 mps 721 mmHg 62%
    10:00 +21°C° 0 mm 2 mps 721 mmHg 54%
    11:00 +24°C° 0 mm 2 mps 721 mmHg 46%
    12:00 +25°C° 0 mm 3 mps 722 mmHg 38%
    13:00 +26°C° 0 mm 3 mps 721 mmHg 37%
    14:00 +27°C° 0 mm 4 mps 721 mmHg 36%
    15:00 +27°C° 0 mm 4 mps 721 mmHg 34%
    16:00 +26°C° 0 mm 4 mps 721 mmHg 38%
    17:00 +25°C° 0 mm 5 mps 721 mmHg 42%
    18:00 +23°C° 0 mm 5 mps 720 mmHg 46%
    19:00 +21°C° 0 mm 4 mps 721 mmHg 53%
    20:00 +18°C° 0 mm 4 mps 721 mmHg 60%
    21:00 +16°C° 0 mm 3 mps 721 mmHg 67%
    22:00 +13°C° 0 mm 3 mps 721 mmHg 75%
    23:00 +13°C° 0 mm 2 mps 721 mmHg 83%

    6 Junio, Sábado

    Tiempo Temperatura Precipitaciones Viento Presión Humedad
    00:00 +12°C° 0 mm 2 mps 721 mmHg 90%
    01:00 +12°C° 0 mm 2 mps 721 mmHg 92%
    02:00 +10°C° 0 mm 2 mps 721 mmHg 93%
    03:00 +10°C° 0 mm 2 mps 720 mmHg 95%
    04:00 +10°C° 0 mm 2 mps 720 mmHg 94%
    05:00 +10°C° 0 mm 2 mps 720 mmHg 93%
    06:00 +12°C° 0 mm 2 mps 720 mmHg 92%
    07:00 +14°C° 0 mm 2 mps 721 mmHg 80%
    08:00 +16°C° 0 mm 2 mps 721 mmHg 67%
    09:00 +19°C° 0 mm 2 mps 721 mmHg 54%
    10:00 +21°C° 0 mm 2 mps 721 mmHg 49%
    11:00 +22°C° 0 mm 3 mps 721 mmHg 43%
    12:00 +25°C° 0 mm 4 mps 721 mmHg 37%
    13:00 +25°C° 0 mm 4 mps 721 mmHg 36%
    14:00 +26°C° 0 mm 4 mps 721 mmHg 35%
    15:00 +26°C° 0 mm 4 mps 720 mmHg 35%
    16:00 +26°C° 0 mm 4 mps 720 mmHg 39%
    17:00 +25°C° 0 mm 4 mps 720 mmHg 43%
    18:00 +23°C° 0 mm 4 mps 720 mmHg 47%
    19:00 +21°C° 0 mm 4 mps 720 mmHg 56%
    20:00 +18°C° 0 mm 3 mps 720 mmHg 65%
    21:00 +16°C° 0 mm 3 mps 720 mmHg 75%
    22:00 +14°C° 0 mm 3 mps 720 mmHg 79%
    23:00 +14°C° 0 mm 2 mps 720 mmHg 83%

    7 Junio, Domingo

    Tiempo Temperatura Precipitaciones Viento Presión Humedad
    00:00 +13°C° 0 mm 2 mps 720 mmHg 88%
    01:00 +13°C° 0 mm 2 mps 720 mmHg 89%
    02:00 +13°C° 0 mm 2 mps 720 mmHg 91%
    03:00 +12°C° 0 mm 2 mps 720 mmHg 92%
    04:00 +12°C° 0 mm 2 mps 720 mmHg 92%
    05:00 +12°C° 0 mm 2 mps 720 mmHg 91%
    06:00 +12°C° 0 mm 2 mps 720 mmHg 91%
    07:00 +15°C° 0 mm 2 mps 721 mmHg 81%
    08:00 +17°C° 0 mm 2 mps 721 mmHg 70%
    09:00 +19°C° 0 mm 2 mps 722 mmHg 60%
    10:00 +21°C° 0 mm 2 mps 722 mmHg 55%
    11:00 +24°C° 0 mm 3 mps 722 mmHg 49%
    12:00 +26°C° 0 mm 3 mps 722 mmHg 44%
    13:00 +26°C° 0 mm 4 mps 722 mmHg 43%
    14:00 +26°C° 0 mm 4 mps 722 mmHg 42%
    15:00 +27°C° 0 mm 5 mps 721 mmHg 42%
    16:00 +26°C° 0 mm 5 mps 721 mmHg 45%
    17:00 +25°C° 0 mm 5 mps 721 mmHg 47%
    18:00 +23°C° 0 mm 5 mps 721 mmHg 50%
    19:00 +21°C° 0 mm 4 mps 721 mmHg 58%
    20:00 +18°C° 0 mm 4 mps 721 mmHg 66%
    21:00 +16°C° 0 mm 3 mps 722 mmHg 74%
    22:00 +14°C° 0 mm 3 mps 721 mmHg 78%
    23:00 +14°C° 0 mm 2 mps 721 mmHg 83%

    8 Junio, Lunes

    Tiempo Temperatura Precipitaciones Viento Presión Humedad
    00:00 +13°C° 0 mm 2 mps 721 mmHg 88%
    01:00 +13°C° 0 mm 2 mps 721 mmHg 89%
    02:00 +12°C° 0 mm 1 mps 721 mmHg 91%
    03:00 +12°C° 0 mm 1 mps 721 mmHg 92%
    04:00 +12°C° 0 mm 1 mps 721 mmHg 90%
    05:00 +13°C° 0 mm 1 mps 721 mmHg 89%
    06:00 +12°C° 0 mm 0 mps 721 mmHg 87%
    07:00 +16°C° 0 mm 1 mps 721 mmHg 77%
    08:00 +20°C° 0 mm 1 mps 722 mmHg 66%
    09:00 +22°C° 0 mm 1 mps 722 mmHg 55%
    10:00 +24°C° 0 mm 1 mps 722 mmHg 50%
    11:00 +26°C° 0 mm 1 mps 722 mmHg 45%
    12:00 +28°C° 0 mm 1 mps 722 mmHg 40%
    13:00 +28°C° 0 mm 2 mps 722 mmHg 38%
    14:00 +28°C° 0 mm 2 mps 722 mmHg 36%
    15:00 +29°C° 0 mm 3 mps 721 mmHg 35%
    16:00 +28°C° 0 mm 3 mps 721 mmHg 38%
    17:00 +27°C° 0 mm 4 mps 721 mmHg 41%
    18:00 +26°C° 0 mm 4 mps 721 mmHg 44%
    19:00 +23°C° 0 mm 4 mps 721 mmHg 52%
    20:00 +20°C° 0 mm 3 mps 721 mmHg 61%
    21:00 +18°C° 0 mm 3 mps 721 mmHg 69%
    22:00 +17°C° 0 mm 2 mps 721 mmHg 71%
    23:00 +16°C° 0 mm 2 mps 721 mmHg 73%
    Mostrar más